Date String (YYYY-MM-DD hh:mm:ss) UTC,Instrument flags,Ambient pressure (hPa),Sample flow (lpm),Bypass flow (lpm),Sample temperature (°C),Ambient temperature (°C),ASC tube jacket temperature (°C),LED temperature (°C),Box temperature (°C),Sample RH (%),Span deviation,Mass concentration (μg/m³),Mass concentration (μg/m³),Mass concentration (μg/m³)
DateTimeUTC,F1_M11,P_M11,Q1_M11,Q2_M11,T1_M11,T2_M11,T3_M11,T4_M11,T5_M11,U1_M11,ZSPAN_M11,X0_M11,X2_M11,X1_M11
2023-04-13 15:00:00,,0817.6,5.01,0.00,27.9,26.3,00.0,36.3,29.5,12.2,0000.0,0011.66,0004.03,0002.53
2023-04-13 15:01:00,,0817.6,5.00,0.00,27.9,26.3,00.0,36.3,29.5,12.3,0000.0,0011.68,0004.08,0002.53
2023-04-13 15:02:00,,0817.6,5.01,0.00,27.9,26.3,00.0,36.3,29.5,12.3,0000.0,0011.25,0004.06,0002.52
2023-04-13 15:03:00,,0817.6,4.99,0.00,27.9,26.3,00.0,36.3,29.5,12.4,0000.0,0011.19,0003.96,0002.52
2023-04-13 15:04:00,,0817.6,4.99,0.00,27.9,26.4,00.0,36.3,29.5,12.4,0000.0,0011.07,0003.91,0002.53
2023-04-13 15:05:00,,0817.6,5.01,0.00,27.9,26.4,00.0,36.3,29.5,12.6,0000.0,0010.71,0003.87,0002.53
2023-04-13 15:06:00,,0817.6,5.01,0.00,28.0,26.4,00.0,36.3,29.6,12.7,0000.0,0010.31,0003.89,0002.54
2023-04-13 15:07:00,,0817.6,5.00,0.00,28.0,26.4,00.0,36.3,29.6,12.3,0000.0,0010.25,0003.89,0002.54
2023-04-13 15:08:00,,0817.6,5.00,0.00,28.0,26.4,00.0,36.3,29.6,12.6,0000.0,0010.66,0003.90,0002.53
2023-04-13 15:09:00,,0817.7,5.01,0.00,28.0,26.5,00.0,36.3,29.6,12.5,0000.0,0011.15,0003.93,0002.53
2023-04-13 15:10:00,,0817.6,4.99,0.00,28.0,26.5,00.0,36.3,29.6,12.8,0000.0,0011.37,0003.97,0002.53
2023-04-13 15:11:00,,0817.5,5.00,0.00,28.0,26.5,00.0,36.3,29.6,12.8,0000.0,0011.53,0004.00,0002.53
2023-04-13 15:12:00,,0817.6,5.00,0.00,28.0,26.5,00.0,36.3,29.7,12.8,0000.0,0012.24,0003.99,0002.52
2023-04-13 15:13:00,,0817.5,5.00,0.00,28.0,26.5,00.0,36.4,29.7,12.4,0000.0,0012.75,0004.00,0002.51
2023-04-13 15:14:00,,0817.6,5.00,0.00,28.1,26.5,00.0,36.4,29.7,11.8,0000.0,0013.35,0004.01,0002.49
2023-04-13 15:15:00,,0817.6,5.00,0.00,28.1,26.6,00.0,36.4,29.7,11.9,0000.0,0013.13,0004.05,0002.47
2023-04-13 15:16:00,,0817.6,5.00,0.00,28.1,26.6,00.0,36.4,29.7,11.9,0000.0,0013.42,0004.07,0002.46
2023-04-13 15:17:00,,0817.6,5.00,0.00,28.1,26.6,00.0,36.4,29.7,11.9,0000.0,0014.37,0004.06,0002.46
2023-04-13 15:18:00,,0817.6,5.00,0.00,28.1,26.6,00.0,36.4,29.7,11.9,0000.0,0014.48,0004.07,0002.45
2023-04-13 15:19:00,,0817.6,5.01,0.00,28.1,26.6,00.0,36.4,29.8,12.2,0000.0,0014.13,0004.04,0002.43
2023-04-13 15:20:00,,0817.6,5.00,0.00,28.1,26.6,00.0,36.4,29.8,13.3,0000.0,0014.35,0004.00,0002.43
2023-04-13 15:21:00,,0817.6,5.00,0.00,28.1,26.6,00.0,36.4,29.7,13.0,0000.0,0014.88,0003.95,0002.42
2023-04-13 15:22:00,,0817.6,5.01,0.00,28.1,26.6,00.0,36.4,29.8,12.5,0000.0,0014.83,0003.97,0002.42
2023-04-13 15:23:00,,0817.6,5.00,0.00,28.1,26.6,00.0,36.4,29.8,12.4,0000.0,0014.39,0003.98,0002.42
2023-04-13 15:24:00,,0817.6,4.99,0.00,28.2,26.6,00.0,36.4,29.8,12.4,0000.0,0014.79,0003.97,0002.44
2023-04-13 15:25:00,,0817.5,5.00,0.00,28.2,26.6,00.0,36.5,29.8,12.7,0000.0,0014.75,0004.02,0002.45
2023-04-13 15:26:00,,0817.5,5.00,0.00,28.2,26.7,00.0,36.5,29.8,12.8,0000.0,0014.61,0004.02,0002.45
2023-04-13 15:27:00,,0817.5,5.00,0.00,28.2,26.7,00.0,36.5,29.8,12.4,0000.0,0014.27,0004.02,0002.46
2023-04-13 15:28:00,,0817.5,5.00,0.00,28.2,26.7,00.0,36.5,29.8,12.4,0000.0,0013.06,0003.97,0002.45
2023-04-13 15:29:00,,0817.5,5.00,0.00,28.2,26.6,00.0,36.5,29.8,12.5,0000.0,0013.46,0003.96,0002.47
2023-04-13 15:30:00,,0817.5,5.00,0.00,28.2,26.6,00.0,36.5,29.8,12.7,0000.0,0014.30,0004.04,0002.52
2023-04-13 15:31:00,,0817.5,5.00,0.00,28.2,26.6,00.0,36.5,29.8,12.6,0000.0,0014.00,0004.13,0002.55
2023-04-13 15:32:00,,0817.4,5.01,0.00,28.2,26.6,00.0,36.5,29.8,12.9,0000.0,0013.92,0004.18,0002.56
2023-04-13 15:33:00,,0817.5,5.00,0.00,28.2,26.6,00.0,36.5,29.8,12.9,0000.0,0013.73,0004.14,0002.57
2023-04-13 15:34:00,,0817.4,5.00,0.00,28.2,26.6,00.0,36.5,29.7,12.8,0000.0,0013.46,0004.13,0002.58
2023-04-13 15:35:00,,0817.4,5.00,0.00,28.2,26.6,00.0,36.5,29.7,12.8,0000.0,0012.71,0004.14,0002.60
2023-04-13 15:36:00,,0817.5,5.00,0.00,28.2,26.5,00.0,36.5,29.7,12.9,0000.0,0013.27,0004.18,0002.61
2023-04-13 15:37:00,,0817.4,5.00,0.00,28.2,26.5,00.0,36.5,29.7,12.9,0000.0,0014.26,0004.21,0002.62
2023-04-13 15:38:00,,0817.4,5.00,0.00,28.1,26.5,00.0,36.5,29.7,13.0,0000.0,0014.39,0004.18,0002.63
2023-04-13 15:39:00,,0817.3,5.00,0.00,28.1,26.5,00.0,36.5,29.7,12.9,0000.0,0014.66,0004.22,0002.64
2023-04-13 15:40:00,,0817.4,5.00,0.00,28.1,26.5,00.0,36.5,29.6,13.0,0000.0,0014.54,0004.25,0002.65
2023-04-13 15:41:00,,0817.4,4.99,0.00,28.1,26.4,00.0,36.5,29.6,12.8,0000.0,0014.13,0004.18,0002.62
2023-04-13 15:42:00,,0817.4,4.99,0.00,28.1,26.4,00.0,36.5,29.6,12.9,0000.0,0014.15,0004.11,0002.61
2023-04-13 15:43:00,,0817.3,5.01,0.00,28.1,26.4,00.0,36.5,29.6,13.2,0000.0,0014.21,0004.15,0002.61
2023-04-13 15:44:00,,0817.3,5.00,0.00,28.1,26.4,00.0,36.5,29.6,13.0,0000.0,0014.59,0004.18,0002.62
2023-04-13 15:45:00,,0817.3,5.00,0.00,28.1,26.4,00.0,36.5,29.6,13.1,0000.0,0014.41,0004.17,0002.61
2023-04-13 15:46:00,,0817.3,5.00,0.00,28.1,26.4,00.0,36.5,29.6,13.3,0000.0,0014.56,0004.20,0002.60
2023-04-13 15:47:00,,0817.3,5.00,0.00,28.0,26.4,00.0,36.4,29.6,13.3,0000.0,0014.44,0004.16,0002.59
2023-04-13 15:48:00,,0817.3,4.99,0.00,28.0,26.3,00.0,36.4,29.5,13.3,0000.0,0013.36,0004.10,0002.58
2023-04-13 15:49:00,,0817.4,5.00,0.00,28.0,26.3,00.0,36.4,29.5,13.6,0000.0,0012.91,0004.11,0002.58
2023-04-13 15:50:00,,0817.4,5.00,0.00,28.0,26.3,00.0,36.4,29.5,13.6,0000.0,0013.01,0004.13,0002.59
2023-04-13 15:51:00,,0817.3,5.00,0.00,28.0,26.3,00.0,36.4,29.5,13.6,0000.0,0013.10,0004.15,0002.60
2023-04-13 15:52:00,,0817.4,5.01,0.00,28.0,26.3,00.0,36.4,29.5,13.5,0000.0,0012.82,0004.16,0002.61
2023-04-13 15:53:00,,0817.4,5.01,0.00,28.0,26.3,00.0,36.4,29.5,13.6,0000.0,0013.02,0004.19,0002.63
2023-04-13 15:54:00,,0817.3,5.01,0.00,28.0,26.3,00.0,36.4,29.5,13.6,0000.0,0012.82,0004.16,0002.64
2023-04-13 15:55:00,,0817.4,5.01,0.00,28.0,26.3,00.0,36.4,29.5,13.7,0000.0,0012.94,0004.15,0002.63
2023-04-13 15:56:00,,0817.4,5.00,0.00,28.0,26.3,00.0,36.4,29.5,13.9,0000.0,0013.15,0004.18,0002.65
2023-04-13 15:57:00,,0817.3,4.99,0.00,28.0,26.3,00.0,36.4,29.5,13.8,0000.0,0012.84,0004.15,0002.66
2023-04-13 15:58:00,,0817.3,4.99,0.00,28.0,26.3,00.0,36.4,29.5,13.7,0000.0,0012.34,0004.13,0002.67
2023-04-13 15:59:00,,0817.3,5.00,0.00,28.0,26.3,00.0,36.4,29.5,13.7,0000.0,0012.03,0004.16,0002.70
